This is the latest recevied weather packets stored in our database for station/object N4BBA. If no packets are shown the sender has not sent any weather packets the latest 1 day(s).
| Time | Temp. | Humidity | Pressure | Rain* | Wind** | Luminosity | Snow |
|---|---|---|---|---|---|---|---|
| 1778019818 | 25.56° C | 49% | 1014.1 hPa | 0 mm | 1.79 m/s, 117° | 92 W/m² | - |
| 1778019515 | 26.11° C | 48% | 1014 hPa | 0 mm | 1.79 m/s, 144° | 115 W/m² | - |
| 1778019212 | 26.11° C | 48% | 1014 hPa | 0 mm | 3.13 m/s, 210° | 225 W/m² | - |
| 1778018909 | 26.11° C | 47% | 1014.1 hPa | 0 mm | 1.34 m/s, 220° | 138 W/m² | - |
| 1778018606 | 26.11° C | 47% | 1014 hPa | 0 mm | 1.34 m/s, 189° | 215 W/m² | - |
| 1778018304 | 25.56° C | 49% | 1014.2 hPa | 0 mm | 1.79 m/s, 194° | 260 W/m² | - |
| 1778018002 | 25.56° C | 49% | 1014.1 hPa | 0 mm | 1.34 m/s, 152° | 101 W/m² | - |
| 1778017699 | 26.11° C | 48% | 1014 hPa | 0 mm | 3.58 m/s, 134° | 138 W/m² | - |
| 1778017397 | 26.67° C | 46% | 1014 hPa | 0 mm | 1.34 m/s, 114° | 139 W/m² | - |
| 1778017093 | 27.22° C | 46% | 1013.9 hPa | 0 mm | 3.13 m/s, 224° | 139 W/m² | - |
| 1778016792 | 26.67° C | 46% | 1013.8 hPa | 0 mm | 2.24 m/s, 141° | 346 W/m² | - |
| 1778016487 | 26.67° C | 45% | 1013.8 hPa | 0 mm | 0.89 m/s, 207° | 384 W/m² | - |
| 1778016185 | 26.67° C | 45% | 1014.1 hPa | 0 mm | 2.24 m/s, 149° | 403 W/m² | - |
| 1778015880 | 26.67° C | 45% | 1014 hPa | 0 mm | 2.24 m/s, 234° | 398 W/m² | - |
| 1778015579 | 26.67° C | 45% | 1014 hPa | 0 mm | 2.68 m/s, 198° | 411 W/m² | - |
| 1778015274 | 27.22° C | 45% | 1014 hPa | 0 mm | 2.68 m/s, 136° | 439 W/m² | - |
| 1778014972 | 26.67° C | 46% | 1014.2 hPa | 0 mm | 0.89 m/s, 172° | 447 W/m² | - |
| 1778014669 | 26.11° C | 46% | 1014.2 hPa | 0 mm | 2.68 m/s, 193° | 468 W/m² | - |
| 1778014367 | 26.67° C | 46% | 1014.3 hPa | 0 mm | 2.68 m/s, 179° | 186 W/m² | - |
| 1778014063 | 26.67° C | 46% | 1014.1 hPa | 0 mm | 2.24 m/s, 230° | 524 W/m² | - |
| 1778013761 | 26.67° C | 46% | 1014.1 hPa | 0 mm | 3.13 m/s, 230° | 557 W/m² | - |
| 1778013458 | 26.67° C | 46% | 1014.1 hPa | 0 mm | 1.79 m/s, 195° | 566 W/m² | - |
| 1778013155 | 26.11° C | 47% | 1014.1 hPa | 0 mm | 3.58 m/s, 186° | 531 W/m² | - |
| 1778012851 | 26.11° C | 47% | 1014.1 hPa | 0 mm | 1.34 m/s, 182° | 375 W/m² | - |
| 1778012547 | 26.67° C | 46% | 1014.1 hPa | 0 mm | 3.58 m/s, 193° | 356 W/m² | - |
* Rain latest hour (hover to see other rain measurements)
** Current wind speed in m/s (hover to see current wind gust speed)